Regional Weather Roundup
Issued by NWS

Home | Current Version | Previous Version | Text Only | Print | Product List | Glossary Off
Versions: 1 2 3 4 5 6 7 8 9 10 11 12 13 14 15 16 17 18 19 20 21 22 23 24 25 26 27 28 29 30 31 32 33 34 35 36 37 38 39 40 41 42 43 44 45 46 47 48 49 50

000
ASUS43 KBIS 251720
RWRND

NORTH DAKOTA REGIONAL WEATHER ROUNDUP
NATIONAL WEATHER SERVICE BISMARCK ND
1200 PM CDT FRI JUL 25 2014

NOTE: "FAIR" INDICATES FEW OR NO CLOUDS BELOW 12,000 FEET WITH NO
SIGNIFICANT WEATHER AND/OR OBSTRUCTIONS TO VISIBILITY.


NDZ001>003-009>011-017-251800-
NORTHWEST NORTH DAKOTA

CITY           SKY/WX    TMP DP  RH WIND       PRES   REMARKS
WILLISTON      SUNNY     74  42  31 SW20      29.85F
MINOT          SUNNY     73  48  41 W15       29.83S
MINOT AFB      SUNNY     72  53  51 W12       29.82S
$$

NDZ018>021-031>035-040>046-251800-
SOUTHWEST NORTH DAKOTA

CITY           SKY/WX    TMP DP  RH WIND       PRES   REMARKS
BISMARCK       SUNNY     78  47  33 NW14G21   29.87R
DICKINSON      SUNNY     72  44  36 W12       29.91F
GARRISON         N/A     72  52  49 W17       29.87R
HETTINGER ARPT SUNNY     73  42  32 NW8       29.94F
$$

NDZ004>008-012>016-024-026-027-054-251800-
NORTHEAST NORTH DAKOTA

CITY           SKY/WX    TMP DP  RH WIND       PRES   REMARKS
GRAND FORKS    PTSUNNY   74  66  76 SW6       29.74F
GRND FRKS AFB  MOSUNNY   76  68  77 VRB6      29.75F
DEVILS LAKE    SUNNY     75  52  43 NW17G25   29.79S
$$

NDZ022-023-025-028>030-036>039-047>053-251800-
SOUTHEAST NORTH DAKOTA

CITY           SKY/WX    TMP DP  RH WIND       PRES   REMARKS
FARGO          CLOUDY    72  65  78 CALM      29.77S
JAMESTOWN      PTSUNNY   77  63  61 N15       29.80R
$$




USA.gov is the U.S. government's official web portal to all federal, state and local government web resources and services.